Location: Newark
(5.5500°N, 0.2500°W)
Time: 00:19:03
(UTC+00:00)

LightSail 2 - Pass Details

Date: 22 September 2019
Orbit: 707 x 723 km, 24.0° (Epoch: 14 October)

Event Time Altitude Azimuth Distance (km) Brightness Sun altitude
Exits shadow 03:49:00 14° 13° (NNE) 1,890 7.5 -31.0°
Drops below altitude 10° 03:50:16 10° 26° (NNE) 2,156 7.9 -30.7°
Sets 03:53:27 0° 45° (NE) 3,075 9.1 -29.9°
